Regional Weather Roundup
Issued by NWS

Home | Current Version | Previous Version | Text Only | Print | Product List | Glossary Off
Versions: 1 2 3 4 5 6 7 8 9 10 11 12 13 14 15 16 17 18 19 20 21 22 23 24 25 26 27 28 29 30 31 32 33 34 35 36 37 38 39 40 41 42 43 44 45 46 47 48 49 50

000
ASUS45 KABQ 272010
RWRNM
WEATHER ROUNDUP FOR NEW MEXICO
NATIONAL WEATHER SERVICE ALBUQUERQUE NM
100 PM MST THU NOV 27 2014

NOTE: "FAIR" MEANS FEW OR NO CLOUDS BELOW 12,000 FEET AGL WITH NO
       SIGNIFICANT WEATHER OR OBSTRUCTIONS TO VISION.

      THIS PRODUCT IS RELEASED AS TWO VERSIONS.  ONE VERSION NEAR
      THE TOP OF THE HOUR CONTAINING PRELIMINARY DATA FROM ALBUQUERQUE
      AND OTHER STATIONS.  A FINAL VERSION WITH ADDITIONAL DATA IS
      ISSUED ABOUT 10 MINUTES AFTER THE HOUR.

NMZ501-503-504-510>518-272100-
NORTHWEST PLATEAU/NORTHCENTRAL MOUNTAINS

CITY           SKY/WX    TMP DP  RH WIND       PRES   REMARKS
FARMINGTON     SUNNY     53  24  32 CALM      30.39F
LOS ALAMOS     SUNNY     52  22  31 CALM      30.42F
SANTA FE       SUNNY     57  21  24 N12       30.38F
TAOS           SUNNY     52  21  30 NW3       30.41F
ANGEL FIRE     FAIR      35  22  59 CALM      30.43F

$$
NMZ402-403-502-505>509-272100-
WESTCENTRAL MOUNTAINS/SOUTHWEST MOUNTAINS

CITY           SKY/WX    TMP DP  RH WIND       PRES   REMARKS
GALLUP         SUNNY     58  17  20 NE3       30.41F
GRANTS         SUNNY     61  10  13 N5        30.42F
SILVER CITY    SUNNY     63  18  17 SE9G16    30.39F

$$
NMZ407-409-411-412-272100-
SOUTHERN DESERTS

CITY           SKY/WX    TMP DP  RH WIND       PRES   REMARKS
LORDSBURG      FAIR      66  23  19 SE12G22   30.33F
DEMING         SUNNY     65  23  20 E8        30.34F
LAS CRUCES     SUNNY     64  23  20 CALM      30.36F
HOLLOMAN AFB   SUNNY     64  24  22 S1        30.33F
ALAMOGORDO     SUNNY     64  23  20 S5        30.35F
T OR C         SUNNY     62  21  20 CALM      30.35F

$$
NMZ519>523-272100-
CENTRAL VALLEYS/CENTRAL HIGHLANDS

CITY           SKY/WX    TMP DP  RH WIND       PRES   REMARKS
ALBUQUERQUE    MOSUNNY   55  23  28 CALM      30.39F
DOUBLE EAGLE   SUNNY     55  23  28 CALM      30.40F
MORIARTY ARPT  FAIR      60  24  25 CALM      30.38F
CLINES CORNERS SUNNY     57  23  26 W17       30.37F
BELEN          FAIR      58  22  25 CALM      30.39F
SOCORRO        FAIR      60  23  24 N6        30.37F

$$
NMZ524>526-539-540-272100-
SOUTHCENTRAL MOUNTAINS

CITY           SKY/WX    TMP DP  RH WIND       PRES   REMARKS
RUIDOSO        SUNNY     64  19  17 NE3       30.40F

$$
NMZ527>531-272100-
NORTHEAST HIGHLANDS/NORTHEAST PLAINS

CITY           SKY/WX    TMP DP  RH WIND       PRES   REMARKS
LAS VEGAS      SUNNY     66  13  12 S8        30.33F
RATON          PTSUNNY   58  20  22 SW7       30.27F
CLAYTON        PTSUNNY   66  23  19 SW14      30.21F

$$
NMZ532>537-272100-
EASTCENTRAL PLAINS

CITY           SKY/WX    TMP DP  RH WIND       PRES   REMARKS
TUCUMCARI      SUNNY     61  28  28 SW14      30.26F
CANNON AFB     SUNNY     61  27  27 SW20      30.29F
CLOVIS AIRPORT SUNNY     63  30  29 SW18      30.29F

$$
NMZ028-029-538-272100-
SOUTHEAST PLAINS

CITY           SKY/WX    TMP DP  RH WIND       PRES   REMARKS
ROSWELL        SUNNY     58  31  35 S12       30.32F
CARLSBAD       SUNNY     59  32  36 SE9       30.34F
HOBBS          SUNNY     57  30  35 SE12      30.37F


$$



USA.gov is the U.S. government's official web portal to all federal, state and local government web resources and services.